Weather History for Crookston, MN

Change the Weather History Date:

Tuesday, March 4, 2014

  Actual Average Record
Temperature  
Mean Temperature 0 °F -  
Max Temperature 10 °F 21 °F 35 °F (2006)
Min Temperature -9 °F 5 °F -16 °F (2003)
Degree Days  
Heating Degree Days 64    
Moisture  
Dew Point -5 °F    
Average Humidity 80    
Maximum Humidity 92    
Minimum Humidity 67    
Precipitation  
Precipitation 0.00 in - - ()
Sea Level Pressure  
Sea Level Pressure 30.26 in    
Wind  
Wind Speed 6 mph (NE)    
Max Wind Speed 10 mph    
Max Gust Speed -    
Visibility 10 miles    
Events Snow    
Averages and records for this station are not official NWS values.
T = Trace of Precipitation, MM = Missing Value Source: NWS Daily Summary

Daily Weather History Graph

Daily Weather History Graph

Search for Another Location

Airport:

Trip Planner

Search our weather history database for the weather conditions in past years. The results will help you decide how hot, cold, wet, or windy it might be!

Date:

Astronomy

Mar. 04, 2014 Rise Set
Actual Time 7:01 AM CST 6:15 PM CST
Civil Twilight 6:30 AM CST 6:46 PM CST
Nautical Twilight 5:54 AM CST 7:22 PM CST
Astronomical Twilight 5:18 AM CST 7:58 PM CST
Moon 8:30 AM CST (3/4) 10:45 PM CST (3/4)
Length of Visible Light 12h 16m
Length of Day
11h 14m
Waxing Crescent, 15% of the Moon is Illuminated
Mar 4
Waxing Crescent
Mar 8
First Quarter
Mar 16
Full
Mar 23
Last Quarter
Mar 30
New

Hourly Weather History & Observations

Time (CST) Temp. Windchill Dew Point Humidity Pressure Visibility Wind Dir Wind Speed Gust Speed Precip Events Conditions
12:14 AM 3.2 °F -7.8 °F -0.4 °F 85% 30.21 in 5.0 mi East 5.8 mph - N/A Snow Light Snow
12:34 AM 3.2 °F -7.8 °F -0.4 °F 85% 30.21 in 5.0 mi East 5.8 mph - N/A Snow Light Snow
12:55 AM 1.4 °F -9.9 °F -2.2 °F 85% 30.21 in 5.0 mi East 5.8 mph - N/A Snow Light Snow
1:14 AM 1.4 °F -11.3 °F -2.2 °F 85% 30.20 in 10.0 mi East 6.9 mph - N/A   Mostly Cloudy
1:35 AM 1.4 °F -9.9 °F -2.2 °F 85% 30.21 in 10.0 mi East 5.8 mph - N/A   Overcast
1:55 AM 1.4 °F -11.3 °F -2.2 °F 85% 30.21 in 10.0 mi East 6.9 mph - N/A   Scattered Clouds
2:14 AM -0.4 °F -13.4 °F -4.0 °F 85% 30.21 in 10.0 mi East 6.9 mph - N/A   Clear
2:35 AM -0.4 °F -12.0 °F -5.8 °F 78% 30.21 in 10.0 mi East 5.8 mph - N/A   Clear
2:55 AM -0.4 °F -13.4 °F -4.0 °F 85% 30.22 in 10.0 mi East 6.9 mph - N/A   Clear
3:14 AM -2.2 °F -14.2 °F -5.8 °F 85% 30.21 in 10.0 mi East 5.8 mph - N/A   Clear
3:35 AM -2.2 °F -14.2 °F -5.8 °F 85% 30.21 in 10.0 mi East 5.8 mph - N/A   Clear
3:55 AM -2.2 °F -16.8 °F -5.8 °F 85% 30.21 in 10.0 mi East 8.1 mph - N/A   Clear
4:14 AM -2.2 °F -14.2 °F -5.8 °F 85% 30.22 in 10.0 mi East 5.8 mph - N/A Snow Light Snow
4:35 AM -4.0 °F -19.0 °F -7.6 °F 85% 30.22 in 10.0 mi ENE 8.1 mph - N/A   Clear
4:54 AM -4.0 °F -17.8 °F -7.6 °F 85% 30.22 in 10.0 mi ENE 6.9 mph - N/A   Clear
5:14 AM -5.8 °F -18.4 °F -9.4 °F 84% 30.24 in 10.0 mi ENE 5.8 mph - N/A Snow Light Snow
5:35 AM -5.8 °F -16.7 °F -9.4 °F 84% 30.23 in 10.0 mi ENE 4.6 mph - N/A Snow Light Snow
5:54 AM -4.0 °F -17.8 °F -7.6 °F 85% 30.23 in 10.0 mi ENE 6.9 mph - N/A Snow Light Snow
6:14 AM -5.8 °F -18.4 °F -9.4 °F 84% 30.22 in 10.0 mi East 5.8 mph - N/A   Clear
6:35 AM -4.0 °F -19.0 °F -7.6 °F 85% 30.22 in 10.0 mi East 8.1 mph - N/A   Clear
6:54 AM -4.0 °F -16.3 °F -9.4 °F 78% 30.23 in 10.0 mi East 5.8 mph - N/A   Clear
7:15 AM -4.0 °F -17.8 °F -7.6 °F 85% 30.22 in 10.0 mi East 6.9 mph - N/A   Clear
7:34 AM -2.2 °F -14.2 °F -7.6 °F 78% 30.22 in 10.0 mi East 5.8 mph - N/A   Clear
7:54 AM -2.2 °F -12.5 °F -5.8 °F 85% 30.24 in 10.0 mi East 4.6 mph - N/A   Clear
8:15 AM -2.2 °F - -5.8 °F 85% 30.25 in 10.0 mi Calm Calm - N/A   Clear
8:34 AM -2.2 °F - -5.8 °F 85% 30.26 in 10.0 mi Calm Calm - N/A   Clear
8:54 AM -0.4 °F -12.0 °F -5.8 °F 78% 30.25 in 10.0 mi East 5.8 mph - N/A   Clear
9:15 AM -0.4 °F -12.0 °F -4.0 °F 85% 30.26 in 10.0 mi ENE 5.8 mph - N/A   Clear
9:34 AM -0.4 °F -12.0 °F -2.2 °F 92% 30.25 in 10.0 mi ENE 5.8 mph - N/A   Clear
9:54 AM 1.4 °F -8.3 °F -2.2 °F 85% 30.26 in 10.0 mi ENE 4.6 mph - N/A   Clear
10:15 AM 1.4 °F -9.9 °F -2.2 °F 85% 30.26 in 10.0 mi ENE 5.8 mph - N/A   Clear
10:34 AM 3.2 °F -9.1 °F -0.4 °F 85% 30.26 in 10.0 mi ENE 6.9 mph - N/A   Clear
10:54 AM 3.2 °F -9.1 °F -0.4 °F 85% 30.27 in 10.0 mi East 6.9 mph - N/A   Clear
11:15 AM 5.0 °F -4.1 °F -0.4 °F 78% 30.27 in 10.0 mi ENE 4.6 mph - N/A   Clear
11:34 AM 5.0 °F -5.6 °F 1.4 °F 85% 30.26 in 10.0 mi ENE 5.8 mph - N/A   Clear
11:54 AM 6.8 °F -3.5 °F -0.4 °F 72% 30.26 in 10.0 mi ENE 5.8 mph - N/A   Clear
12:15 PM 6.8 °F -0.1 °F 1.4 °F 79% 30.26 in 10.0 mi ENE 3.5 mph - N/A   Clear
12:34 PM 6.8 °F -0.1 °F 1.4 °F 79% 30.26 in 10.0 mi NE 3.5 mph - N/A   Clear
12:54 PM 8.6 °F 2.0 °F 1.4 °F 73% 30.26 in 10.0 mi NE 3.5 mph - N/A   Clear
1:14 PM 8.6 °F 0.1 °F 1.4 °F 73% 30.26 in 10.0 mi NE 4.6 mph - N/A   Clear
1:34 PM 8.6 °F -1.3 °F 1.4 °F 73% 30.26 in 10.0 mi ENE 5.8 mph - N/A   Clear
1:55 PM 8.6 °F -2.6 °F 1.4 °F 73% 30.25 in 10.0 mi NE 6.9 mph - N/A   Clear
2:14 PM 8.6 °F -3.7 °F 1.4 °F 73% 30.25 in 10.0 mi NE 8.1 mph - N/A   Clear
2:34 PM 10.4 °F -2.4 °F 1.4 °F 67% 30.25 in 10.0 mi NE 9.2 mph - N/A   Clear
2:55 PM 10.4 °F -0.4 °F 1.4 °F 67% 30.25 in 10.0 mi NE 6.9 mph - N/A   Clear
3:14 PM 10.4 °F 2.2 °F 1.4 °F 67% 30.25 in 10.0 mi NE 4.6 mph - N/A   Clear
3:34 PM 10.4 °F 0.8 °F 1.4 °F 67% 30.25 in 10.0 mi NE 5.8 mph - N/A   Clear
3:55 PM 10.4 °F 2.2 °F 1.4 °F 67% 30.26 in 10.0 mi NE 4.6 mph - N/A   Clear
4:14 PM 10.4 °F 0.8 °F 1.4 °F 67% 30.26 in 10.0 mi NNE 5.8 mph - N/A   Clear
4:34 PM 8.6 °F -3.7 °F 1.4 °F 73% 30.27 in 10.0 mi North 8.1 mph - N/A   Clear
4:55 PM 6.8 °F -7.8 °F -0.4 °F 72% 30.26 in 10.0 mi North 10.4 mph - N/A   Clear
5:14 PM 5.0 °F -10.0 °F -0.4 °F 78% 30.27 in 10.0 mi North 10.4 mph - N/A   Clear
5:34 PM 3.2 °F -11.3 °F -2.2 °F 78% 30.27 in 10.0 mi North 9.2 mph - N/A   Clear
5:55 PM -0.4 °F -14.7 °F -5.8 °F 78% 30.28 in 10.0 mi North 8.1 mph - N/A   Clear
6:14 PM -0.4 °F -13.4 °F -5.8 °F 78% 30.29 in 10.0 mi North 6.9 mph - N/A   Clear
6:34 PM -0.4 °F -13.4 °F -5.8 °F 78% 30.30 in 10.0 mi North 6.9 mph - N/A   Clear
6:55 PM -2.2 °F -18.0 °F -7.6 °F 78% 30.31 in 10.0 mi North 9.2 mph - N/A   Clear
7:14 PM -4.0 °F -19.0 °F -9.4 °F 78% 30.31 in 10.0 mi North 8.1 mph - N/A   Clear
7:34 PM -4.0 °F -17.8 °F -7.6 °F 85% 30.31 in 10.0 mi North 6.9 mph - N/A   Clear
7:55 PM -5.8 °F -21.2 °F -9.4 °F 84% 30.31 in 10.0 mi NNE 8.1 mph - N/A   Clear
8:14 PM -4.0 °F -19.0 °F -7.6 °F 85% 30.32 in 10.0 mi NNE 8.1 mph - N/A   Clear
8:34 PM -4.0 °F -19.0 °F -9.4 °F 78% 30.32 in 10.0 mi NNE 8.1 mph - N/A   Clear
8:55 PM -5.8 °F -16.7 °F -11.2 °F 77% 30.33 in 10.0 mi North 4.6 mph - N/A   Clear
9:14 PM -9.4 °F -24.3 °F -13.0 °F 84% 30.33 in 10.0 mi North 6.9 mph - N/A   Clear
9:34 PM -7.6 °F -20.6 °F -11.2 °F 84% 30.34 in 10.0 mi North 5.8 mph - N/A   Clear
9:54 PM -7.6 °F -20.6 °F -13.0 °F 77% 30.34 in 10.0 mi NNE 5.8 mph - N/A   Clear
10:14 PM -7.6 °F -20.6 °F -11.2 °F 84% 30.34 in 10.0 mi NNE 5.8 mph - N/A   Clear
10:35 PM -7.6 °F -23.4 °F -11.2 °F 84% 30.35 in 10.0 mi NNE 8.1 mph - N/A   Clear
10:54 PM -7.6 °F -16.5 °F -13.0 °F 77% 30.35 in 10.0 mi North 3.5 mph - N/A   Clear
11:14 PM -7.6 °F -16.5 °F -11.2 °F 84% 30.35 in 10.0 mi NE 3.5 mph - N/A   Clear
11:35 PM -5.8 °F -16.7 °F -9.4 °F 84% 30.36 in 10.0 mi NNW 4.6 mph - N/A   Clear
11:54 PM -4.0 °F -14.6 °F -9.4 °F 78% 30.35 in 10.0 mi East 4.6 mph - N/A   Clear